CZ-6A DEB, 55006

Orbit data source: Space-Track

CZ-6A DEB, 55006 is space debris in SSO originally from a launch on Fri, 11 Nov 2022 UTC launched from the Taiyaun Space Center, China (TSC). Debris objects in space refer to the collection of defunct objects orbiting the Earth. Examples of debris include non-operational satellites, rocket bodies, and fragments generated from explosions, collisions, or faulty payload assembly.

Loading next visibility...
Identifier
55006, 2022-151UW
Orbit
SSO
Country
Flag of CNCN / PRC
Related business
Manufacturer
SAST
Mission
Spacecraft
Bus & Motor
Unknown
Mass
Unknown
Launch date (UTC)
2022-11-11 (4 years ago)
Launch vehicle
Unknown
Launch site
Taiyaun Space Center, China (TSC)
Object type
Payload
Rocket body
Debris
Shape & HBR
Unknown shape, 0.1 m
Radar Cross Section
Medium (>0.1 m² and <1 m²)

Expand to show TLE details & history
Last TLE update: 12 hours ago

TLE from 12 hours ago
0 CZ-6A DEB
1 55006U 22151UW  26219.97144865  .00000739  00000-0  39524-3 0  9996
2 55006  98.8227 223.3612 0041623 178.4067 181.7247 14.15779407191457
Epoch: 2026-08-07T23:18Z
TLE epoch observation values (Epoch: 2026-08-07T23:18:53.163Z)
Latitude
0.00001°
Longitude
-82.84981°
Altitude
872.602 km
Speed
7.401 km/s
True Right ascension
14h 53m 26s
True Declination
0° 00' 00"
Sunlit
Object was in daylight at epoch
Visualization orbit readout
Latitude
Unknown
Longitude
Unknown
Altitude
Unknown
Speed
Unknown
Apparent Right ascension
Unknown
Apparent Declination
Unknown
Sunlit
N/A
Visualization observer readout
Local Sidereal Time
01:09:08
Azimuth
Unknown
Elevation
Unknown
Doppler factor
Unknown
Orbital elements
Apogee altitude
866.862 km
Perigee altitude
806.801 km
Semi-major axis
7,214.969 km
Eccentricity
0.00416
Inclination
98.8227°
RAAN
223.3612°
Arg. of periapsis
178.4067°
True anomaly
181.71042°
Mean anomaly
181.7247°
Eccentric anomaly
181.71755°
Mean motion
3.54153 °/min
Orbital period
101.65 mins
BSTAR
0.00039524
Loading maneuver chart data...
Computing Atmospheric mass density...
Loading historical data...
Loading historical data...
Loading historical data...
Loading historical data...
Loading historical data...
Loading historical data...
Loading historical data...

Documentation

Showing up to 5 results
|